マクミラン彗星

P/2010 J3 ( McMillan )

English version
Home page
Updated on February 10, 2013

---------------------------------------------------------------------

・ プロフィール

発見日 2010年5月12日
発見光度 17.8等
発見者 R. S. McMillan (Spacewatch)

・ 写真集

・ 軌道要素

Epoch 2010 Sept. 1.0 TT = JDT 2455440.5
T 2010 Aug. 23.48044 TT                                 MPC
q   2.4550985            (2000.0)            P               Q
n   0.03659787     Peri.  157.31834     -0.09505176     +0.97093378
a   8.9846025      Node   106.66061     -0.94488859     -0.01855149
e   0.7267438      Incl.   13.25532     -0.31329015     -0.23862825
P  26.9
From 493 observations 2010 Feb. 3-2011 Sept. 20, mean residual 0".5.

・ 星図

・ 光度変化

        m1 = 11.8 + 5 logΔ + 10.0 log r

---------------------------------------------------------------------

軌道要素はM.P.E.C. 2013-A29に掲載されたものです。
星図はステラナビゲータ Ver.8 (アストロアーツ) で作成したものです。
光度グラフはComet for Windowsで作成したものです。

---------------------------------------------------------------------

Copyright(C) Seiichi Yoshida (comet@aerith.net). All rights reserved.